| time (UTC) | temp F | wind direction | speed knots | gust knots | rain 1hr in | rain 24hr in | rain mn in | humidity % | barometer mb |
| 20260508014530 | 46 | 119 | 0.0 | 0.9 | 0.00 | 0.00 | 0.00 | 96 | 944.4 |
| 20260508013029 | 46 | 119 | 0.0 | 1.7 | 0.00 | 0.00 | 0.00 | 95 | 944.3 |
| 20260508011526 | 46 | 204 | 0.0 | 2.6 | 0.00 | 0.00 | 0.00 | 96 | 944.4 |
| 20260508010027 | 46 | 99 | 0.9 | 2.6 | 0.00 | 0.00 | 0.00 | 95 | 944.6 |
| 20260508004523 | 46 | 150 | 0.0 | 1.7 | 0.00 | 0.00 | 0.00 | 95 | 944.7 |
| 20260508003021 | 46 | 94 | 0.0 | 1.7 | 0.00 | 0.00 | 0.00 | 94 | 944.7 |
| 20260508001536 | 47 | 96 | 0.0 | 2.6 | 0.00 | 0.00 | 0.00 | 94 | 944.8 |
| 20260508000016 | 47 | 105 | 0.0 | 1.7 | 0.00 | 0.00 | 0.00 | 93 | 944.8 |
| 20260507234517 | 47 | 105 | 0.0 | 0.9 | 0.00 | 0.00 | 0.00 | 92 | 944.9 |
| 20260507233017 | 48 | 105 | 0.0 | 1.7 | 0.00 | 0.00 | 0.00 | 92 | 944.7 |
| 20260507231510 | 48 | 105 | 0.9 | 1.7 | 0.00 | 0.00 | 0.00 | 91 | 944.8 |
| 20260507230009 | 49 | 111 | 0.9 | 2.6 | 0.00 | 0.00 | 0.00 | 89 | 945.0 |
| 20260507224507 | 51 | 263 | 0.9 | 3.5 | 0.00 | 0.00 | 0.00 | 89 | 945.1 |
| 20260507223004 | 51 | 188 | 1.7 | 2.6 | 0.00 | 0.00 | 0.00 | 89 | 945.1 |
| 20260507221601 | 50 | 183 | 0.0 | 4.3 | 0.00 | 0.00 | 0.00 | 92 | 945.0 |
| 20260507220055 | 49 | 180 | 1.7 | 4.3 | 0.00 | 0.00 | 0.00 | 93 | 945.0 |
| 20260507214600 | 48 | 125 | 0.0 | 0.9 | 0.00 | 0.00 | 0.00 | 92 | 945.0 |
| 20260507213055 | 49 | 38 | 0.0 | 3.5 | 0.00 | 0.00 | 0.00 | 91 | 945.0 |
| 20260507211555 | 50 | 66 | 1.7 | 2.6 | 0.00 | 0.00 | 0.00 | 90 | 944.9 |
| 20260507210055 | 49 | 103 | 0.9 | 2.6 | 0.00 | 0.00 | 0.00 | 89 | 944.8 |
| 20260507204558 | 50 | 56 | 1.7 | 3.5 | 0.00 | 0.00 | 0.00 | 88 | 944.6 |
| 20260507203053 | 51 | 70 | 1.7 | 2.6 | 0.00 | 0.00 | 0.00 | 87 | 944.5 |
| 20260507201558 | 52 | 88 | 1.7 | 2.6 | 0.00 | 0.00 | 0.00 | 85 | 944.3 |
| 20260507200101 | 53 | 42 | 1.7 | 2.6 | 0.00 | 0.00 | 0.00 | 82 | 944.2 |
| 20260507194552 | 54 | 96 | 1.7 | 4.3 | 0.00 | 0.00 | 0.00 | 79 | 944.0 |
| 20260507193053 | 55 | 80 | 0.9 | 1.7 | 0.00 | 0.00 | 0.00 | 78 | 943.8 |
| 20260507191556 | 56 | 109 | 1.7 | 2.6 | 0.00 | 0.00 | 0.00 | 76 | 943.8 |
| 20260507190054 | 57 | 165 | 1.7 | 4.3 | 0.00 | 0.00 | 0.00 | 72 | 944.0 |
| 20260507184552 | 57 | 215 | 2.6 | 6.1 | 0.00 | 0.00 | 0.00 | 74 | 943.9 |
| 20260507183051 | 57 | 202 | 0.9 | 5.2 | 0.00 | 0.00 | 0.00 | 76 | 943.9 |
| 20260507181559 | 58 | 159 | 0.9 | 2.6 | 0.00 | 0.00 | 0.00 | 77 | 943.9 |
| 20260507180048 | 59 | 98 | 1.7 | 4.3 | 0.00 | 0.00 | 0.00 | 73 | 943.9 |
| 20260507174554 | 59 | 333 | 0.9 | 5.2 | 0.00 | 0.00 | 0.00 | 72 | 943.9 |
| 20260507173047 | 62 | 17 | 0.9 | 4.3 | 0.00 | 0.00 | 0.00 | 66 | 943.7 |
| 20260507171548 | 63 | 167 | 1.7 | 5.2 | 0.00 | 0.00 | 0.00 | 57 | 943.5 |
| 20260507170050 | 63 | 111 | 2.6 | 5.2 | 0.00 | 0.00 | 0.00 | 57 | 943.5 |
| 20260507164546 | 63 | 136 | 1.7 | 4.3 | 0.00 | 0.00 | 0.00 | 56 | 943.5 |
| 20260507163044 | 64 | 118 | 1.7 | 4.3 | 0.00 | 0.00 | 0.00 | 54 | 943.6 |
| 20260507161545 | 64 | 96 | 2.6 | 4.3 | 0.00 | 0.00 | 0.00 | 52 | 943.7 |
| 20260507160043 | 64 | 109 | 3.5 | 7.0 | 0.00 | 0.00 | 0.00 | 50 | 943.4 |
| 20260507154547 | 64 | 153 | 2.6 | 10.4 | 0.00 | 0.00 | 0.00 | 54 | 943.2 |
| 20260507153048 | 64 | 140 | 3.5 | 12.2 | 0.00 | 0.00 | 0.00 | 56 | 942.8 |
| 20260507151537 | 63 | 138 | 4.3 | 9.6 | 0.00 | 0.00 | 0.00 | 61 | 943.2 |
| 20260507150039 | 63 | 113 | 6.1 | 10.4 | 0.00 | 0.00 | 0.00 | 60 | 943.6 |
| 20260507144534 | 64 | 128 | 3.5 | 10.4 | 0.00 | 0.00 | 0.00 | 57 | 943.8 |
| 20260507143035 | 64 | 127 | 5.2 | 15.6 | 0.00 | 0.00 | 0.00 | 60 | 943.9 |
| 20260507141531 | 63 | 117 | 5.2 | 12.2 | 0.00 | 0.00 | 0.00 | 62 | 943.9 |
| 20260507140030 | 63 | 154 | 9.6 | 15.6 | 0.00 | 0.00 | 0.00 | 59 | 944.0 |
| 20260507134531 | 63 | 143 | 5.2 | 9.6 | 0.00 | 0.00 | 0.00 | 63 | 944.1 |
| 20260507133027 | 62 | 207 | 1.7 | 7.8 | 0.00 | 0.00 | 0.00 | 66 | 944.2 |
| 20260507131534 | 61 | 128 | 5.2 | 12.2 | 0.00 | 0.00 | 0.00 | 66 | 944.6 |
| 20260507130022 | 61 | 150 | 6.1 | 13.9 | 0.00 | 0.00 | 0.00 | 64 | 944.9 |
| 20260507124520 | 60 | 186 | 7.0 | 13.0 | 0.00 | 0.00 | 0.00 | 72 | 945.2 |
| 20260507123021 | 60 | 207 | 8.7 | 18.2 | 0.00 | 0.00 | 0.00 | 67 | 945.4 |
| 20260507121520 | 63 | 155 | 6.1 | 11.3 | 0.00 | 0.00 | 0.00 | 61 | 945.4 |
| 20260507120033 | 64 | 165 | 4.3 | 10.4 | 0.00 | 0.00 | 0.00 | 59 | 945.1 |
| 20260507114518 | 63 | 199 | 6.1 | 11.3 | 0.00 | 0.00 | 0.00 | 60 | 945.3 |
| 20260507113015 | 63 | 111 | 7.0 | 12.2 | 0.00 | 0.00 | 0.00 | 61 | 945.2 |
| 20260507111514 | 63 | 118 | 2.6 | 7.8 | 0.00 | 0.00 | 0.00 | 59 | 945.3 |
| 20260507110009 | 62 | 194 | 2.6 | 7.0 | 0.00 | 0.00 | 0.00 | 65 | 945.4 |
| 20260507104510 | 61 | 186 | 4.3 | 9.6 | 0.00 | 0.00 | 0.00 | 66 | 945.4 |
| 20260507103100 | 60 | 167 | 2.6 | 9.6 | 0.00 | 0.00 | 0.00 | 69 | 945.4 |
| 20260507101604 | 56 | 198 | 2.6 | 7.8 | 0.00 | 0.00 | 0.00 | 85 | 945.7 |
| 20260507100051 | 54 | 290 | 3.5 | 6.1 | 0.00 | 0.00 | 0.00 | 95 | 946.0 |
| 20260507094547 | 52 | 261 | 1.7 | 4.3 | 0.00 | 0.00 | 0.00 | 99 | 946.1 |
| 20260507093051 | 51 | 278 | 1.7 | 4.3 | 0.00 | 0.00 | 0.00 | 99 | 946.2 |
| 20260507091541 | 49 | 275 | 2.6 | 4.3 | 0.00 | 0.00 | 0.00 | 100 | 946.4 |
| 20260507090037 | 48 | 289 | 1.7 | 4.3 | 0.00 | 0.00 | 0.00 | 99 | 946.5 |
| 20260507084533 | 47 | 240 | 2.6 | 4.3 | 0.00 | 0.00 | 0.00 | 99 | 946.5 |
| 20260507083029 | 46 | 288 | 0.9 | 2.6 | 0.00 | 0.00 | 0.00 | 99 | 946.6 |
| 20260507081539 | 45 | 223 | 0.0 | 4.3 | 0.00 | 0.00 | 0.00 | 99 | 946.7 |
| 20260507080024 | 45 | 208 | 0.9 | 2.6 | 0.00 | 0.00 | 0.00 | 99 | 946.7 |
| 20260507074544 | 44 | 176 | 0.9 | 2.6 | 0.00 | 0.00 | 0.00 | 99 | 946.7 |
| 20260507073022 | 44 | 244 | 0.9 | 2.6 | 0.00 | 0.00 | 0.00 | 99 | 946.7 |
| 20260507071521 | 44 | 59 | 0.0 | 1.7 | 0.00 | 0.00 | 0.00 | 99 | 946.8 |
| 20260507070021 | 44 | 120 | 0.0 | 2.6 | 0.00 | 0.00 | 0.00 | 99 | 946.8 |
| 20260507064519 | 43 | 128 | 0.9 | 2.6 | 0.00 | 0.00 | 0.00 | 99 | 946.7 |
| 20260507063023 | 43 | 122 | 0.9 | 3.5 | 0.00 | 0.00 | 0.00 | 99 | 946.8 |
| 20260507061515 | 42 | 127 | 0.9 | 2.6 | 0.00 | 0.00 | 0.00 | 99 | 946.9 |
| 20260507060012 | 42 | 116 | 0.9 | 4.3 | 0.00 | 0.00 | 0.00 | 98 | 946.8 |
| 20260507054514 | 42 | 117 | 2.6 | 4.3 | 0.00 | 0.00 | 0.00 | 99 | 946.8 |
| 20260507053011 | 42 | 119 | 0.9 | 4.3 | 0.00 | 0.00 | 0.00 | 99 | 946.7 |
| 20260507051508 | 42 | 74 | 0.0 | 2.6 | 0.00 | 0.00 | 0.00 | 98 | 946.8 |
| 20260507050022 | 42 | 111 | 1.7 | 2.6 | 0.00 | 0.00 | 0.00 | 98 | 946.8 |
| 20260507044506 | 42 | 97 | 0.9 | 1.7 | 0.00 | 0.00 | 0.00 | 98 | 946.9 |
| 20260507043005 | 42 | 298 | 0.0 | 1.7 | 0.00 | 0.00 | 0.00 | 98 | 947.0 |
| 20260507041504 | 42 | 258 | 0.0 | 2.6 | 0.00 | 0.00 | 0.00 | 99 | 947.0 |
| 20260507040006 | 42 | 167 | 0.0 | 1.7 | 0.00 | 0.00 | 0.00 | 98 | 946.9 |
| 20260507034501 | 42 | 131 | 1.7 | 4.3 | 0.00 | 0.00 | 0.00 | 98 | 947.2 |
| 20260507033001 | 41 | 117 | 0.9 | 2.6 | 0.00 | 0.00 | 0.00 | 98 | 947.4 |
| 20260507031609 | 41 | 54 | 0.0 | 1.7 | 0.00 | 0.00 | 0.00 | 98 | 947.0 |
| 20260507030101 | 41 | 68 | 0.9 | 1.7 | 0.00 | 0.00 | 0.00 | 97 | 947.1 |
| 20260507024558 | 42 | 41 | 0.9 | 2.6 | 0.00 | 0.00 | 0.00 | 98 | 947.1 |
| 20260507023106 | 43 | 55 | 0.9 | 2.6 | 0.00 | 0.00 | 0.00 | 98 | 947.1 |
| 20260507021557 | 42 | 85 | 0.9 | 2.6 | 0.00 | 0.00 | 0.00 | 98 | 947.4 |
| 20260507020057 | 42 | 94 | 0.9 | 2.6 | 0.00 | 0.00 | 0.00 | 98 | 947.4 |